Regional Weather Roundup
Issued by NWS State College, PA

Home | Current Version | Previous Version | Graphics & Text | Print | Product List | Glossary On
Versions: 1 2 3 4 5 6 7 8 9 10 11 12 13 14 15 16 17 18 19 20 21 22 23 24 25 26 27 28 29 30 31 32 33 34 35 36 37 38 39 40 41 42 43 44 45 46 47 48 49 50
000
ASUS41 KCTP 170410
RWRCTP

REGIONAL WEATHER ROUNDUP
NATIONAL WEATHER SERVICE STATE COLLEGE PA
1200 AM EDT THU APR 17 2014

Note: "fair" indicates few or no clouds below 12,000 feet with no
significant weather and/or obstructions to visibility.

* = STATION THAT DOES NOT REPORT PRECIPITATION /E.G. RAIN...SNOW...ETC/
    THUNDER OR FOG.

PAZ002>004-007>009-013>016-020>023-029>032-170500-
WESTERN PENNSYLVANIA

CITY           SKY/WX    TMP DP  RH WIND       PRES   REMARKS
ERIE           PTCLDY    30  18  60 E5        30.46S
MEADVILLE      NOT AVBL
FRANKLIN*      MOCLDY    32  12  43 E6        30.43R
NEW CASTLE     FAIR      35  16  46 CALM      30.41F
BEAVER COUNTY  NOT AVBL
BUTLER*        PTCLDY    36  16  44 E13       30.42S
PITTSBURGH INT CLOUDY    38  17  42 E9        30.38F
PITTSBURGH     PTCLDY    39  16  39 E10       30.39R
INDIANA*       PTCLDY    36  16  44 E5        30.45R
LATROBE        CLEAR     37  14  38 NE5       30.43S
WASHINGTON CO* PTCLDY    36  18  48 E6        30.39S
$$

PAZ004>006-010>012-017>019-024>028-033>037-041-042-045-046-049>053-170500-
CENTRAL PENNSYLVANIA

CITY           SKY/WX    TMP DP  RH WIND       PRES   REMARKS
BRADFORD       PTCLDY    28  14  55 SE6       30.43R
DUBOIS         PTCLDY    33  15  47 SE9       30.43R
CLEARFIELD     PTCLDY    30  17  58 NE6       30.47R
JOHNSTOWN      PTCLDY    32  12  43 E7        30.40S
ALTOONA        PTCLDY    34  17  50 SE5       30.47R
STATE COLLEGE  PTCLDY    37   8  31 E7        30.50R
WILLIAMSPORT   PTCLDY    34  15  46 CALM      30.55R
SELINSGROVE    CLEAR     36  18  48 NE7       30.55R
FT INDIANTOWN  NOT AVBL
CAPITAL CITY   CLEAR     37  19  48 E5        30.55R
HARRISBURG     PTCLDY    39  16  39 NE3       30.54R
YORK           CLEAR     29  25  85 CALM      30.54R
$$

PAZ038>040-043-044-047-048-054-055-060>062-067>071-170500-
EASTERN PENNSYLVANIA

CITY           SKY/WX    TMP DP  RH WIND       PRES   REMARKS
SCRANTON       CLEAR     31  17  56 CALM      30.54R
MOUNT POCONO   CLEAR     30  14  51 NE5       30.49R
ALLENTOWN      CLEAR     35  16  45 CALM      30.57R
QUAKERTOWN*    CLEAR     34  19  55 CALM      30.56R
READING        CLEAR     38  16  40 N5        30.55R
LANCASTER      CLEAR     34  19  54 E6        30.54R
COATESVILLE    NOT AVBL
POTTSTOWN      CLEAR     34  22  61 N5        30.57R
BLUE BELL      CLEAR     37  25  60 CALM      30.55R
DOYLESTOWN     CLEAR     34  19  54 NE3       30.55R
WILLOW GROVE   NOT AVBL
NORTH PHILA    CLEAR     40  17  39 N8        30.57R
PHILADELPHIA   CLEAR     42  16  34 NE9       30.57R
$$



USA.gov is the U.S. government's official web portal to all federal, state and local government web resources and services.